Weather in Yuzhny

Russia / Chelyabinsk Oblast     53°31′38″N   60°04′37″E
temp.,
°C
wind,
m/s
gust,
m/s
humid.,
%
clouds,
%
prec.,
mm/h
press.,
hPa
HPBL,
m
11 may, tue
tue1123:00+12se23610 0.0 102430
02:00+11e34630 0.0 102461
05:00+9ene22580 0.0 102610
08:00+13ne34480 0.0 1027278
11:00+17e34340 0.0 10271383
14:00+19e22265 0.0 10271818
17:00+20ese2224100 0.0 10271846
20:00+17s113429 0.0 102711
12 may, wed
wed1223:00+14s223796 0.0 102810
02:00+12s223921 0.0 102910
05:00+11sw2244100 0.0 103011
08:00+15wsw224161 0.0 1030139
11:00+20sw22285 0.0 10291235
14:00+22wsw22230 0.0 10291828
17:00+23wsw22220 0.0 10281894
20:00+19sw333593 0.0 102733
13 may, thu
thu1323:00+16wsw33363 0.0 102825
02:00+14w33445 0.0 102828
05:00+13nw33480 0.0 102818
08:00+18nnw24495 0.0 1028209
11:00+23nne33385 0.0 10271288
14:00+25n223130 0.0 10272145
17:00+26nnw232955 0.0 10262317
20:00+23se00405 0.0 102611
14 may, fri
fri1423:00+19se00465 0.0 102611
02:00+17s125025 0.0 102711
05:00+16ssw11525 0.0 102711
08:00+20sw22435 0.0 1028179
11:00+25wsw22325 0.0 1027971
14:00+27wsw33273 0.0 10262499
17:00+27wsw33250 0.0 10252684
20:00+23w33380 0.0 102533
15 may, sat
sat1523:00+19wsw33380 0.0 102528
02:00+17wnw22490 0.0 102512
05:00+16nnw46602 0.0 102683
08:00+20ne35475 0.0 1026247
11:00+25nne11343 0.0 10251038
14:00+27wsw33262 0.0 10232624
17:00+28wsw33245 0.0 10222913
20:00+24w23361 0.0 102220